This is the latest recevied weather packets stored in our database for station/object K7PMV-13. If no packets are shown the sender has not sent any weather packets the latest 10 day(s).
| Time | Temp. | Humidity | Pressure | Rain* | Wind** | Luminosity | Snow |
|---|---|---|---|---|---|---|---|
| 1777850900 | 36.11° C | 17% | 1001.8 hPa | 0 mm | - | 475 W/m² | - |
| 1777850581 | 36.11° C | 17% | 1001.8 hPa | 0 mm | - | 508 W/m² | - |
| 1777850252 | 36.11° C | 16% | 1001.8 hPa | 0 mm | - | 515 W/m² | - |
| 1777849936 | 35.56° C | 16% | 1001.9 hPa | 0 mm | - | 540 W/m² | - |
| 1777849621 | 35.56° C | 17% | 1001.9 hPa | 0 mm | - | 555 W/m² | - |
| 1777849284 | 36.11° C | 16% | 1002 hPa | 0 mm | - | 200 W/m² | - |
| 1777848966 | 36.11° C | 17% | 1002 hPa | 0 mm | - | 589 W/m² | - |
| 1777848698 | 36.11° C | 16% | 1002.2 hPa | 0 mm | - | 605 W/m² | - |
| 1777848652 | 36.11° C | 16% | 1002.2 hPa | 0 mm | - | 605 W/m² | - |
| 1777848337 | 36.67° C | 15% | 1002.1 hPa | 0 mm | - | 628 W/m² | - |
| 1777848014 | 36.11° C | 15% | 1002.3 hPa | 0 mm | - | 640 W/m² | - |
| 1777847684 | 36.67° C | 17% | 1002.3 hPa | 0 mm | - | 663 W/m² | - |
| 1777847367 | 36.67° C | 17% | 1002.3 hPa | 0 mm | - | 682 W/m² | - |
| 1777847045 | 36.67° C | 17% | 1002.5 hPa | 0 mm | - | 691 W/m² | - |
| 1777846730 | 36.11° C | 17% | 1002.6 hPa | 0 mm | - | 703 W/m² | - |
| 1777846416 | 36.11° C | 18% | 1002.6 hPa | 0 mm | - | 715 W/m² | - |
| 1777846099 | 36.67° C | 18% | 1002.8 hPa | 0 mm | - | 735 W/m² | - |
| 1777845747 | 36.67° C | 17% | 1002.8 hPa | 0 mm | - | 747 W/m² | - |
| 1777845432 | 36.11° C | 17% | 1002.9 hPa | 0 mm | - | 754 W/m² | - |
| 1777845114 | 36.11° C | 17% | 1003.1 hPa | 0 mm | - | 766 W/m² | - |
| 1777844799 | 36.11° C | 17% | 1003.2 hPa | 0 mm | - | 780 W/m² | - |
| 1777844481 | 36.11° C | 18% | 1003.2 hPa | 0 mm | - | 795 W/m² | - |
| 1777844160 | 36.11° C | 17% | 1003.3 hPa | 0 mm | - | 807 W/m² | - |
| 1777843843 | 35.56° C | 18% | 1003.5 hPa | 0 mm | - | 817 W/m² | - |
| 1777843519 | 36.11° C | 18% | 1003.7 hPa | 0 mm | - | 830 W/m² | - |
* Rain latest hour (hover to see other rain measurements)
** Current wind speed in m/s (hover to see current wind gust speed)